weather.gov     
National Weather Service

Regional Weather Roundup
NWS Homepage
This page is being discontinued on March 12, 2014.
The same data is available at this site. Please update your bookmarks.
Thank you, and we apologize for the inconvenience.
Please send an email to SR-SRH.Webmaster@noaa.gov with any concerns.


Current Version
Previous Version:    01  02  03  04  05  06  07  08  09  10  11  12  13  14  15  16  17  18  19  20  21  22  23  24  25  26  27  28  29  30  
   31  32  33  34  35  36  37  38  39  40  41  42  43  44  45  46  47  48  49  50  51  52  53  54  55  56  57  58  59  60  
[Printable]
660
NZUS01 KOTX 252210
RWROTX
EASTERN WASHINGTON/NORTHERN IDAHO ROUNDUP
NATIONAL WEATHER SERVICE, SPOKANE WA
200 PM PST SUN JAN 25 2015

Note: "fair" indicated few or no clouds below 12,000 feet with no
significant weather and/or obstructions to visibility.

...NORTHEAST WASHINGTON AND NORTHERN IDAHO PANHANDLE...

CITY           SKY/WX    TMP DP  RH WIND       PRES   REMARKS
SPOKANE INTL   PTSUNNY   51  45  79 N7        30.18F
SPOKANE DOWNTO PTSUNNY   56  43  61 CALM      30.19F
COEUR D ALENE  MOSUNNY   55  45  67 SE5       30.18F
DEER PARK      CLOUDY    43  42  97 N6        30.21F FOG
SANDPOINT      PTSUNNY   45  45 100 SW5       30.20F
BONNERS FERRY  FAIR      41  39  93 CALM      30.17F

...SOUTHEAST WASHINGTON AND SOUTHERN IDAHO PANHANDLE...

CITY           SKY/WX    TMP DP  RH WIND       PRES   REMARKS
WALLA WALLA    CLOUDY    41  38  89 CALM      30.18F FOG
PULLMAN/MOSCOW MOSUNNY   54  42  64 SE15      30.22F
LEWISTON       SUNNY     59  40  49 S7        30.21F
LOWELL           N/A     45  40  82 N7        30.32F

...COLUMBIA BASIN...

CITY           SKY/WX    TMP DP  RH WIND       PRES   REMARKS
EPHRATA        CLOUDY    40  37  89 NW9       30.20F
MOSES LAKE     CLOUDY    39  37  92 NE6       30.21F FOG
TRI CITIES     CLOUDY    41  40  96 W5        30.23F
HERMISTON      MOSUNNY   48  39  71 N7        30.16F
PENDLETON      MOSUNNY   57  47  69 NW8       30.13F

...EAST SLOPES CASCADES...

CITY           SKY/WX    TMP DP  RH WIND       PRES   REMARKS
THE DALLES     CLOUDY    50  46  86 NE3       30.14F
YAKIMA         PTSUNNY   43  38  82 VRB5      30.18F HAZE
ELLENSBURG     CLOUDY    44  40  85 CALM      30.16F FOG
WENATCHEE      CLOUDY    36  34  92 CALM      30.21F
OMAK           CLOUDY    38  36  92 S3        30.21F

...SOUTHERN BRITISH COLUMBIA...

CITY           SKY/WX    TMP DP  RH WIND       PRES   REMARKS
PENTICTON      PTSUNNY   45  37  76 S10G20    30.18F
CASTLEGAR      PTSUNNY   39  37  93 S14       30.23S
CRANBROOK      PTSUNNY   48  34  57 S22       30.06S

...WESTERN MONTANA...

CITY           SKY/WX    TMP DP  RH WIND       PRES   REMARKS
MISSOULA       PTSUNNY   38  35  89 CALM      30.19F

...NEIGHBORING CITIES...

CITY           SKY/WX    TMP DP  RH WIND       PRES   REMARKS
SEATTLE        PTSUNNY   60  50  69 CALM      30.09F
CALGARY        MOSUNNY   63  28  27 W8G18     29.79S




U.S. Dept. of Commerce
NOAA National Weather Service
1325 East West Highway
Silver Spring, MD 20910
E-mail: w-nws.webmaster@noaa.gov
Page last modified: May 16, 2007
NATIONAL WEATHER SERVICE: for Safety, for Work, for Fun - FOR LIFE